FW2664 Weather Reports


Display with metric or nautical units.
time (UTC)temp
F
wind
direction
speed
MPH
gust
MPH
rain 1hr
in
rain 24hr
in
rain mn
in
humidity
%
barometer
mb
20260503005459 50 86 1.0 2.0 0.00 0.00 0.00 80 1017.4
20260503004956 51 63 1.0 2.0 0.00 0.00 0.00 79 1017.3
20260503004452 51 69 2.0 3.0 0.00 0.00 0.00 78 1017.2
20260503003950 51 73 1.0 2.0 0.00 0.00 0.00 78 1017.2
20260503003447 52 70 2.0 3.0 0.00 0.00 0.00 76 1017.1
20260503002944 52 71 2.0 3.0 0.00 0.00 0.00 75 1017.0
20260503002441 52 28 3.0 5.0 0.00 0.00 0.00 74 1017.1
20260503001937 52 16 2.0 4.0 0.00 0.00 0.00 74 1016.8
20260503001434 53 359 4.0 6.0 0.00 0.00 0.00 73 1016.9
20260503000932 53 351 3.0 6.0 0.00 0.00 0.00 72 1016.8
20260503000430 53 352 2.0 5.0 0.00 0.00 0.00 72 1016.7
20260502235926 53 42 3.0 7.0 0.00 0.00 0.00 71 1016.5
20260502235422 53 37 4.0 5.0 0.00 0.00 0.00 71 1016.5
20260502234920 54 58 4.0 6.0 0.00 0.00 0.00 70 1016.4
20260502234417 54 49 4.0 7.0 0.00 0.00 0.00 69 1016.3
20260502233914 54 96 3.0 6.0 0.00 0.00 0.00 69 1016.2
20260502233409 55 12 3.0 8.0 0.00 0.00 0.00 68 1016.2
20260502232906 56 50 3.0 6.0 0.00 0.00 0.00 66 1016.2
20260502232402 55 30 5.0 7.0 0.00 0.00 0.00 66 1016.3
20260502231859 55 39 3.0 6.0 0.00 0.00 0.00 68 1016.4
20260502231357 55 120 1.0 8.0 0.00 0.00 0.00 69 1016.2
20260502230855 55 2 5.0 9.0 0.00 0.00 0.00 70 1016.4
20260502230353 55 347 5.0 6.0 0.00 0.00 0.00 71 1016.3
20260502225850 55 356 4.0 6.0 0.00 0.00 0.00 69 1016.3
20260502225346 56 17 2.0 5.0 0.00 0.00 0.00 66 1016.1
20260502224843 57 31 3.0 7.0 0.00 0.00 0.00 62 1016.0
20260502224339 57 27 4.0 5.0 0.00 0.00 0.00 61 1016.0
20260502223837 57 59 2.0 3.0 0.00 0.00 0.00 61 1015.9
20260502223335 58 17 4.0 5.0 0.00 0.00 0.00 57 1015.8
20260502222832 59 357 4.0 5.0 0.00 0.00 0.00 53 1015.8
20260502222330 59 13 3.0 5.0 0.00 0.00 0.00 50 1015.5
20260502221825 59 44 0.0 4.0 0.00 0.00 0.00 51 1015.4
20260502221321 60 287 3.0 5.0 0.00 0.00 0.00 50 1015.2
20260502220819 60 49 0.0 3.0 0.00 0.00 0.00 51 1015.0
20260502220314 60 252 2.0 5.0 0.00 0.00 0.00 49 1014.9
20260502215811 61 275 4.0 9.0 0.00 0.00 0.00 45 1014.9
20260502215308 62 288 1.0 9.0 0.00 0.00 0.00 44 1014.7
20260502214806 63 309 3.0 6.0 0.00 0.00 0.00 42 1014.5
20260502214302 64 330 2.0 6.0 0.00 0.00 0.00 40 1014.2
20260502213759 65 219 2.0 4.0 0.00 0.00 0.00 39 1014.2
20260502213257 66 263 2.0 3.0 0.00 0.00 0.00 38 1014.1
20260502212755 66 299 1.0 6.0 0.00 0.00 0.00 36 1013.9
20260502212253 66 259 3.0 7.0 0.00 0.00 0.00 37 1013.9
20260502211749 66 283 3.0 3.0 0.00 0.00 0.00 35 1014.0
20260502211246 64 280 2.0 3.0 0.00 0.00 0.00 43 1014.0
20260502210743 63 206 0.0 5.0 0.00 0.00 0.00 39 1014.2
20260502210241 64 274 4.0 10.0 0.00 0.00 0.00 39 1014.3
20260502205738 64 314 2.0 3.0 0.00 0.00 0.00 40 1014.2
20260502205233 64 356 0.0 2.0 0.00 0.00 0.00 40 1014.3
20260502204731 64 282 2.0 5.0 0.00 0.00 0.00 39 1014.3
20260502204228 65 339 4.0 8.0 0.00 0.00 0.00 37 1014.2
20260502203726 65 342 2.0 5.0 0.00 0.00 0.00 37 1014.1
20260502203224 66 296 2.0 4.0 0.00 0.00 0.00 35 1014.3
20260502202717 65 296 2.0 5.0 0.00 0.00 0.00 40 1014.3
20260502202216 64 359 3.0 3.0 0.00 0.00 0.00 39 1014.4
20260502201713 63 10 3.0 5.0 0.00 0.00 0.00 40 1014.4
20260502201210 64 356 5.0 6.0 0.00 0.00 0.00 37 1014.5
20260502200705 64 280 3.0 6.0 0.00 0.00 0.00 38 1014.5
20260502200202 65 34 1.0 3.0 0.00 0.00 0.00 36 1014.5
20260502195700 65 324 4.0 5.0 0.00 0.00 0.00 39 1014.6
20260502195157 66 264 1.0 2.0 0.00 0.00 0.00 39 1014.6
20260502194653 66 274 1.0 5.0 0.00 0.00 0.00 36 1014.7
20260502194150 66 251 1.0 3.0 0.00 0.00 0.00 37 1014.6
20260502193647 66 262 0.0 4.0 0.00 0.00 0.00 36 1014.8
20260502193144 68 1 2.0 2.0 0.00 0.00 0.00 33 1014.9
20260502192639 69 296 3.0 4.0 0.00 0.00 0.00 36 1014.7
20260502192137 68 161 0.0 5.0 0.00 0.00 0.00 35 1014.7
20260502191633 67 247 2.0 4.0 0.00 0.00 0.00 39 1014.9
20260502191131 67 166 3.0 6.0 0.00 0.00 0.00 35 1015.1
20260502190628 66 298 2.0 4.0 0.00 0.00 0.00 38 1015.0
20260502190126 65 284 3.0 4.0 0.00 0.00 0.00 36 1014.9
20260502185620 65 291 2.0 4.0 0.00 0.00 0.00 38 1014.9
20260502185117 65 127 0.0 4.0 0.00 0.00 0.00 35 1015.1
20260502184613 65 8 3.0 4.0 0.00 0.00 0.00 36 1015.1
20260502184109 66 269 0.0 4.0 0.00 0.00 0.00 38 1015.0
20260502183605 66 64 2.0 5.0 0.00 0.00 0.00 35 1015.2
20260502183102 67 324 5.0 5.0 0.00 0.00 0.00 37 1015.1
20260502182557 65 130 0.0 5.0 0.00 0.00 0.00 34 1015.2
20260502182053 66 43 2.0 4.0 0.00 0.00 0.00 34 1015.4
20260502181551 66 5 4.0 7.0 0.00 0.00 0.00 36 1015.1
20260502181049 65 38 3.0 3.0 0.00 0.00 0.00 38 1015.3
20260502180546 64 326 4.0 5.0 0.00 0.00 0.00 39 1015.3
20260502170505 65 142 0.0 2.0 0.00 0.00 0.00 38 1015.9
20260502163949 66 112 3.0 4.0 0.00 0.00 0.00 39 1016.0
20260502163444 65 95 2.0 4.0 0.00 0.00 0.00 35 1016.1
20260502162942 65 259 2.0 4.0 0.00 0.00 0.00 37 1016.3
20260502162439 65 42 4.0 6.0 0.00 0.00 0.00 38 1016.3
20260502161936 65 50 4.0 8.0 0.00 0.00 0.00 38 1016.3
20260502161432 65 99 4.0 6.0 0.00 0.00 0.00 40 1016.5
20260502160930 64 55 3.0 5.0 0.00 0.00 0.00 39 1016.5
20260502160428 64 310 3.0 8.0 0.00 0.00 0.00 41 1016.6
20260502151912 63 72 5.0 6.0 0.00 0.00 0.00 38 1016.4
20260502151408 62 50 3.0 5.0 0.00 0.00 0.00 40 1016.6
20260502150906 61 70 8.0 10.0 0.00 0.00 0.00 43 1016.5
20260502150402 61 177 2.0 6.0 0.00 0.00 0.00 42 1016.5
20260502130248 57 53 4.0 6.0 0.00 0.00 0.00 56 1016.3
20260502123734 57 78 3.0 4.0 0.00 0.00 0.00 58 1016.1
20260502123231 57 69 1.0 3.0 0.00 0.00 0.00 59 1016.0
20260502122728 56 53 3.0 4.0 0.00 0.00 0.00 57 1016.0
20260502122224 55 56 2.0 4.0 0.00 0.00 0.00 62 1016.1
20260502121722 53 84 3.0 4.0 0.00 0.00 0.00 64 1016.2
20260502121220 50 61 2.0 2.0 0.00 0.00 0.00 69 1016.0
20260502120716 50 23 2.0 3.0 0.00 0.00 0.00 68 1015.9
20260502120213 49 55 2.0 3.0 0.00 0.00 0.00 70 1016.1
20260502115711 48 31 3.0 3.0 0.00 0.00 0.00 72 1015.9
20260502115207 48 52 2.0 3.0 0.00 0.00 0.00 76 1015.9
20260502114703 46 56 2.0 2.0 0.00 0.00 0.00 79 1015.7
20260502114200 44 49 2.0 2.0 0.00 0.00 0.00 82 1015.6
20260502113657 43 93 2.0 3.0 0.00 0.00 0.00 85 1015.4
20260502113155 42 89 2.0 2.0 0.00 0.00 0.00 86 1015.5
20260502112653 42 79 2.0 2.0 0.00 0.00 0.00 86 1015.2
20260502112150 42 72 2.0 3.0 0.00 0.00 0.00 86 1015.5
20260502111648 42 74 2.0 3.0 0.00 0.00 0.00 85 1015.8
20260502111145 42 82 2.0 2.0 0.00 0.00 0.00 85 1015.5
20260502110643 42 79 2.0 3.0 0.00 0.00 0.00 84 1015.5
20260502110140 42 89 2.0 3.0 0.00 0.00 0.00 84 1015.6
20260502105637 42 80 2.0 2.0 0.00 0.00 0.00 82 1015.4
20260502105134 42 80 2.0 2.0 0.00 0.00 0.00 83 1015.5
20260502104631 43 83 2.0 2.0 0.00 0.00 0.00 82 1015.6
20260502104129 43 88 2.0 3.0 0.00 0.00 0.00 81 1015.4
20260502103626 43 83 2.0 3.0 0.00 0.00 0.00 81 1015.4
20260502103124 43 74 2.0 3.0 0.00 0.00 0.00 80 1015.3
20260502102621 43 78 3.0 3.0 0.00 0.00 0.00 80 1015.2
20260502102118 43 83 3.0 3.0 0.00 0.00 0.00 80 1015.1
20260502101616 44 64 2.0 3.0 0.00 0.00 0.00 79 1015.4
20260502101114 44 78 2.0 2.0 0.00 0.00 0.00 77 1015.3
20260502100612 44 74 3.0 3.0 0.00 0.00 0.00 77 1015.1
20260502100110 45 65 2.0 3.0 0.00 0.00 0.00 77 1015.2
20260502091044 48 87 2.0 2.0 0.00 0.00 0.00 65 1015.1
20260502090541 49 75 2.0 3.0 0.00 0.00 0.00 65 1015.0
20260502071436 50 74 2.0 2.0 0.00 0.00 0.00 64 1015.8
20260502070933 50 75 2.0 3.0 0.00 0.00 0.00 60 1015.6
20260502070431 50 61 2.0 3.0 0.00 0.00 0.00 60 1015.5
20260502065929 50 56 3.0 3.0 0.00 0.00 0.00 60 1015.5
20260502065428 50 70 2.0 3.0 0.00 0.00 0.00 60 1015.5
20260502064925 50 56 3.0 3.0 0.00 0.00 0.00 61 1015.6
20260502064423 50 69 3.0 3.0 0.00 0.00 0.00 62 1015.6
20260502063920 50 73 3.0 4.0 0.00 0.00 0.00 61 1015.7
20260502063417 50 84 3.0 3.0 0.00 0.00 0.00 61 1015.8
20260502062915 50 60 3.0 4.0 0.00 0.00 0.00 62 1015.7
20260502062412 50 70 3.0 3.0 0.00 0.00 0.00 62 1015.6
20260502061911 50 74 2.0 3.0 0.00 0.00 0.00 61 1015.9
20260502061409 50 82 3.0 4.0 0.00 0.00 0.00 60 1015.6
20260502060904 51 57 3.0 4.0 0.00 0.00 0.00 60 1015.8
20260502060359 51 60 3.0 3.0 0.00 0.00 0.00 58 1015.9
20260502055856 51 75 3.0 4.0 0.00 0.00 0.00 58 1016.1
20260502055354 52 86 2.0 4.0 0.00 0.00 0.00 57 1016.0
20260502054854 52 28 2.0 4.0 0.00 0.00 0.00 56 1015.8
20260502054350 52 349 2.0 4.0 0.00 0.00 0.00 56 1015.7
20260502053848 52 58 1.0 4.0 0.00 0.00 0.00 55 1015.6
20260502053345 52 42 4.0 5.0 0.00 0.00 0.00 55 1015.6
20260502052843 52 15 3.0 4.0 0.00 0.00 0.00 55 1015.4
20260502052341 52 54 2.0 3.0 0.00 0.00 0.00 55 1015.2
20260502051838 53 31 3.0 5.0 0.00 0.00 0.00 54 1015.2
20260502051337 53 54 3.0 4.0 0.00 0.00 0.00 54 1015.1
20260502050833 53 6 3.0 4.0 0.00 0.00 0.00 53 1015.2
20260502050329 53 15 2.0 4.0 0.00 0.00 0.00 54 1015.1
20260502045826 53 5 2.0 4.0 0.00 0.00 0.00 54 1015.1
20260502045323 53 56 3.0 4.0 0.00 0.00 0.00 55 1015.0
20260502044820 53 39 4.0 4.0 0.00 0.00 0.00 54 1015.1
20260502044316 53 6 2.0 4.0 0.00 0.00 0.00 54 1015.3
20260502043814 53 22 3.0 4.0 0.00 0.00 0.00 53 1015.4
20260502043311 53 37 3.0 4.0 0.00 0.00 0.00 53 1015.7
20260502042810 53 11 2.0 3.0 0.00 0.00 0.00 54 1015.5
20260502042308 53 39 2.0 3.0 0.00 0.00 0.00 53 1015.5
20260502041805 53 25 2.0 3.0 0.00 0.00 0.00 53 1015.6
20260502041303 53 16 2.0 3.0 0.00 0.00 0.00 53 1015.7
20260502040800 54 30 2.0 3.0 0.00 0.00 0.00 53 1016.0
20260502040256 54 24 2.0 3.0 0.00 0.00 0.00 52 1015.8
20260502035752 54 32 3.0 3.0 0.00 0.00 0.00 52 1015.7
20260502035249 54 0 3.0 5.0 0.00 0.00 0.00 51 1015.8
20260502034746 54 32 2.0 4.0 0.00 0.00 0.00 52 1015.9
20260502034245 54 54 2.0 3.0 0.00 0.00 0.00 53 1016.0
20260502033743 54 15 3.0 4.0 0.00 0.00 0.00 51 1015.9
20260502033240 54 22 3.0 4.0 0.00 0.00 0.00 51 1016.1
20260502032736 55 28 2.0 4.0 0.00 0.00 0.00 51 1016.1
20260502032233 55 47 2.0 3.0 0.00 0.00 0.00 52 1016.3
20260502031731 55 34 3.0 3.0 0.00 0.00 0.00 50 1016.3
20260502031229 55 37 3.0 3.0 0.00 0.00 0.00 50 1016.5
20260502030727 55 13 3.0 4.0 0.00 0.00 0.00 49 1016.4
20260502030225 55 46 2.0 3.0 0.00 0.00 0.00 49 1016.3
20260502025721 55 47 0.0 4.0 0.00 0.00 0.00 49 1016.2
20260502025220 56 51 2.0 4.0 0.00 0.00 0.00 49 1016.0
20260502024717 56 41 2.0 4.0 0.00 0.00 0.00 48 1016.2
20260502024215 56 88 2.0 3.0 0.00 0.00 0.00 48 1016.0
20260502023713 56 45 2.0 3.0 0.00 0.00 0.00 48 1016.1
20260502023210 56 9 3.0 4.0 0.00 0.00 0.00 47 1016.1
20260502022707 56 27 2.0 4.0 0.00 0.00 0.00 49 1016.0
20260502022203 56 13 2.0 3.0 0.00 0.00 0.00 48 1015.8
20260502021701 56 5 2.0 4.0 0.00 0.00 0.00 48 1015.9
20260502021158 56 50 2.0 3.0 0.00 0.00 0.00 48 1015.8
20260502020655 57 55 2.0 3.0 0.00 0.00 0.00 47 1015.9
20260502020152 57 1 2.0 3.0 0.00 0.00 0.00 47 1015.6
20260502015650 57 37 2.0 3.0 0.00 0.00 0.00 47 1015.6
20260502015146 57 51 2.0 3.0 0.00 0.00 0.00 47 1015.6
20260502014644 57 15 3.0 4.0 0.00 0.00 0.00 46 1015.5
20260502014140 57 20 4.0 4.0 0.00 0.00 0.00 46 1015.6
20260502013636 57 22 2.0 4.0 0.00 0.00 0.00 45 1015.3
20260502013132 57 45 2.0 4.0 0.00 0.00 0.00 45 1015.4
20260502012630 57 42 2.0 4.0 0.00 0.00 0.00 45 1015.2
20260502012128 58 54 2.0 3.0 0.00 0.00 0.00 45 1015.4
20260502011624 57 59 2.0 4.0 0.00 0.00 0.00 43 1015.4
20260502011120 58 73 2.0 3.0 0.00 0.00 0.00 43 1015.3
20260502010618 58 84 2.0 4.0 0.00 0.00 0.00 43 1015.4
20260502010114 58 55 2.0 3.0 0.00 0.00 0.00 42 1015.1